Location: Waco, TX
(31.5480°N, 97.1670°W)
Time: 13:49:20
(UTC-05:00)

ISS - Pass Details

Date: 06 May 2021
Orbit: 417 x 422 km, 51.6° (Epoch: 15 May)

Event Time Altitude Azimuth Distance (km) Brightness Sun altitude
Rises 00:12:27 0° 195° (SSW) 2,342 - -38.8°
Reaches altitude 10° 00:14:51 10° 179° (S) 1,484 - -39.0°
Maximum altitude 00:17:26 21° 128° (SE) 997 - -39.2°
Drops below altitude 10° 00:20:01 10° 77° (ENE) 1,493 - -39.4°
Sets 00:22:27 0° 61° (ENE) 2,361 - -39.5°
